Flag for Tunisia Weather past 2 weeks in Sfax, Tunisia

Now
86 °F

Passing clouds.


Feels Like: 87 °F
Forecast: 71 / 86 °F
Wind: 12 mph from Southeast

Location: Sfax El-Maou

Current Time: Aug 30, 2015 at 3:05:31 PM

Latest Report: Aug 30, 2015 at 2:00 PM


Visibility: N/A

Pressure: 30.09 "Hg

Humidity: 49%

Dew point: 64 °F

Location of SfaxLocation

Historic Weather in Sfax — Graph

°F

Sfax temperature yesterday

Maximum temperature yesterday: 86 °F (at 11:00 AM)
Minimum temperature yesterday: 79 °F (at 3:00 AM)
Average temperature yesterday: 83 °F

Past Weeks' High & Low Weather Summary

 TemperatureHumidityPressure
High93 °F (Aug 19, 3:00 PM)83% (Aug 16, 6:00 AM)30.12 "Hg (Aug 16, 6:00 AM)
Low73 °F (Aug 16, 6:00 AM)26% (Aug 20, 11:00 AM)29.80 "Hg (Aug 15, 5:00 PM)
Average83 °F58%29.98 "Hg
* Reported Aug 15 2:00 PM — Aug 30 2:00 PM, Sfax, Weather by CustomWeather, © 2015

Note: Actual official high and low records may vary slightly from our data, if they occured in-between our weather recording intervals... More about our weather records

Advertising

Sfax weather history for previous 24 hours

 ConditionsComfort  
Time TempWeatherWind HumidityBarometerVisibility
2:00 PM
Sun, Aug 30
86 °FPassing clouds.12 mph49%30.09 "HgN/A
1:00 PM86 °FPassing clouds.10 mph43%30.09 "HgN/A
12:00 PM86 °FPassing clouds.10 mph38%30.12 "HgN/A
11:00 AM86 °FPassing clouds.7 mph43%30.12 "HgN/A
9:00 AM82 °FPassing clouds.5 mph55%30.12 "HgN/A
8:00 AM81 °FPassing clouds.3 mph58%30.09 "HgN/A
7:00 AM73 °FSunny.5 mph74%30.09 "Hg10 mi
6:00 AM73 °FSunny.6 mph69%30.09 "Hg10 mi
4:00 AM75 °FClear.5 mph69%30.09 "Hg10 mi
1:00 AM79 °FClear.2 mph61%30.09 "Hg10 mi
12:00 AM79 °FClear.2 mph61%30.09 "Hg10 mi
11:00 PM
Sat, Aug 29
81 °FClear.2 mph58%30.09 "Hg10 mi
10:00 PM81 °FClear.2 mph54%30.09 "Hg10 mi
9:00 PM81 °FClear.5 mph58%30.09 "Hg10 mi
8:00 PM82 °FPassing clouds.7 mph51%30.07 "HgN/A
7:00 PM82 °FPassing clouds.9 mph51%30.07 "HgN/A
6:00 PM84 °FSunny.10 mph51%30.07 "Hg10 mi
5:00 PM86 °FPassing clouds.12 mph49%30.07 "HgN/A
4:00 PM86 °FPassing clouds.10 mph49%30.07 "HgN/A
3:00 PM86 °FPassing clouds.12 mph46%30.09 "HgN/A
Weather by CustomWeather, © 2015

See weather overviewHow to use our weather pages